{"data":{"norad_id":68300,"intl_designator":"2026-057G","name":"STARLINK-36875","alt_names":[],"object_type":"PAYLOAD","status":"ACTIVE","operator":null,"country":"US","launch_date":"2026-03-20","launch_site_code":"AFWTR","launch_vehicle":null,"mission":null,"orbit_class":"UNKNOWN","rcs_meters":null,"size_class":null,"mass_kg":null,"dimensions":null,"purposes":["comms"],"wikipedia_slug":null,"has_3d_model":false,"image_url":null,"decayed_at":null,"tle_current":{"epoch":"2026-05-25T05:05:03.624000Z","epoch_age_seconds":63667,"freshness":"FRESH","line1":"1 68300U 26057G   26145.21184750  .00307349  00000+0  19811-2 0  9990","line2":"2 68300  97.2853 271.4933 0000972  81.8453 278.2922 15.75272897 10331","mean_motion":15.75272897,"eccentricity":9.72e-5,"inclination_deg":97.2853,"raan_deg":271.4933,"arg_perigee_deg":81.8453,"mean_anomaly_deg":278.2922,"bstar":0.0019811,"rev_number":1033,"period_min":91.412732533035,"perigee_km":343.20135580952,"apogee_km":344.50811100249,"semimajor_km":6721.991733406,"source":"CELESTRAK","updated_at":"2026-05-25T13:38:21.916760Z"}}}